TimeEDT,TemperatureF,Dew PointF,Humidity,Sea Level PressureIn,VisibilityMPH,Wind Direction,Wind SpeedMPH,Gust SpeedMPH,PrecipitationIn,Events,Conditions,WindDirDegrees,DateUTC
12:00 AM,49.1,45.0,86,29.96,-9999.0,NNE,6.9,-,N/A,,Unknown,20,2012-10-29 04:00:00
1:00 AM,48.2,44.6,87,29.96,-9999.0,NNE,8.1,-,N/A,,Unknown,20,2012-10-29 05:00:00
2:00 AM,48,44,83,29.94,,North,9.2,,,,,10,2012-10-29 06:00:00
2:00 AM,47.7,44.4,89,29.94,-9999.0,North,9.2,-,N/A,,Unknown,10,2012-10-29 06:00:00
3:00 AM,47.1,43.7,88,29.92,-9999.0,NNE,8.1,-,N/A,,Unknown,20,2012-10-29 07:00:00
4:00 AM,47.8,44.1,87,29.91,-9999.0,NNE,6.9,-,N/A,,Unknown,30,2012-10-29 08:00:00
5:00 AM,48.2,44.4,87,-9999,-9999.0,NNE,9.2,19.6,N/A,,Unknown,30,2012-10-29 09:00:00
6:00 AM,48.7,45.0,87,29.89,-9999.0,NNE,6.9,-,N/A,,Unknown,30,2012-10-29 10:00:00
7:00 AM,48.6,45.1,88,29.88,-9999.0,NNE,6.9,-,N/A,,Unknown,30,2012-10-29 11:00:00
8:00 AM,49,45,83,29.88,,NNE,6.9,,,,,20,2012-10-29 12:00:00
8:00 AM,48.7,45.3,88,29.88,-9999.0,NNE,6.9,-,N/A,,Unknown,20,2012-10-29 12:00:00
9:00 AM,49.6,45.9,87,29.87,-9999.0,NNE,8.1,-,N/A,,Unknown,20,2012-10-29 13:00:00
10:00 AM,52.3,47.1,82,29.85,-9999.0,NNE,8.1,-,N/A,,Unknown,30,2012-10-29 14:00:00
12:00 PM,57.4,48.7,73,29.77,-9999.0,NE,8.1,-,N/A,,Unknown,40,2012-10-29 16:00:00
1:00 PM,59.0,50.0,72,29.74,-9999.0,NNE,9.2,19.6,N/A,,Unknown,20,2012-10-29 17:00:00
2:00 PM,62,49,54,29.74,,NE,5.8,,,,,40,2012-10-29 18:00:00
2:00 PM,61.9,49.5,64,29.74,-9999.0,NE,5.8,-,N/A,,Unknown,40,2012-10-29 18:00:00
3:00 PM,61.5,50.2,66,29.72,-9999.0,NE,8.1,-,N/A,,Unknown,40,2012-10-29 19:00:00
4:00 PM,60.4,50.2,69,29.71,-9999.0,NE,9.2,19.6,N/A,,Unknown,40,2012-10-29 20:00:00
5:00 PM,57.9,50.4,76,29.70,-9999.0,NE,11.5,28.8,N/A,,Unknown,40,2012-10-29 21:00:00
6:00 PM,57.0,49.3,75,29.65,-9999.0,NNE,10.4,17.3,N/A,,Unknown,30,2012-10-29 22:00:00
8:00 PM,56,50,73,29.60,,NNE,11.5,,,,,30,2012-10-30 00:00:00